Вернуться в каталог

THOR AGENA B DEB

АктивенPO
NORAD 510·DEBRIS·🇺🇸 United States

Запущен Sep 29, 1962 с Vandenberg Space Force Base

Loading…

Ближайшие Пролёты (ближайшие 24 часа)

TLE

СвежийSource: Space-Track

Эпоха: Sep 14, 2026, 21:46 UTC

1 00510U 62049C   26257.90717322  .00000045  00000-0  41105-4 0  9994
2 00510  80.5116 237.1579 0014798 216.5009 171.6873 13.70078298194951

Отслеживайте THOR AGENA B DEB в реальном времени с AllMySat

Download on the App Store